Theta_e
332 332 334 334 334 334 331 333 331 327 331 331 332 331 332 331 333 331 330 331 330 328 327 324 322 324 323 322 322 321 320 321 319 322 326 329 329 330 331 332 327 323 319
330 330 332 334 335 336 332 334 333 327 328 330 330 330 330 330 331 330 330 331 328 326 326 323 322 324 323 322 321 320 319 321 321 320 322 326 327 328 328 322 319 317 316
326 328 331 334 334 334 333 335 335 329 328 329 329 330 330 332 331 331 330 328 327 325 325 323 323 323 321 323 323 321 321 323 324 322 319 320 321 321 320 323 323 321 319
322 327 328 333 333 335 333 335 332 335 332 333 332 332 331 331 331 331 330 328 327 326 325 324 324 324 323 323 323 323 323 323 322 320 319 317 318 320 317 319 321 322 321
320 323 328 332 333 334 334 333 335 334 334 331 327 329 332 332 332 330 328 328 326 326 325 326 326 325 323 324 327 324 326 321 319 318 316 318 319 320 319 321 319 319 320
321 321 325 326 327 334 335 332 332 332 331 329 327 326 325 320 308 316 326 329 328 327 326 326 325 321 318 314 313 314 319 323 321 319 318 316 317 319 319 319 318 317 315
321 321 321 324 324 329 331 332 332 333 333 331 326 326 325 319 306 308 316 330 328 327 325 324 324 326 320 320 310 310 310 310 315 328 322 320 321 322 322 320 319 320 318
320 320 320 321 322 325 329 330 334 334 333 332 328 326 322 312 306 307 316 330 329 327 326 327 321 323 322 323 323 323 323 323 323 326 327 325 320 319 324 326 325 324 325
320 321 319 319 322 324 325 330 333 334 333 331 328 326 321 316 301 301 318 329 328 328 327 327 327 323 304 304 323 321 321 316 304 302 300 299 298 298 302 318 319 317 314
320 321 320 318 321 324 328 330 333 334 332 329 330 329 318 320 299 298 306 326 325 324 323 312 305 317 300 301 320 319 318 319 311 308 310 306 302 308 301 310 311 307 307
322 322 323 321 323 326 331 331 332 332 330 331 329 330 328 320 311 298 297 316 322 319 318 317 308 299 297 296 302 318 310 308 313 314 313 315 318 318 313 312 313 310 306
323 322 323 325 320 325 329 330 331 330 331 329 328 326 327 323 310 297 296 298 300 318 313 314 306 295 294 295 300 296 298 305 312 312 313 314 317 314 313 315 316 314 313
323 324 325 324 323 325 327 328 327 329 326 323 322 321 321 324 314 298 295 296 300 317 315 307 295 294 295 295 293 296 298 310 312 312 314 317 313 309 306 308 307 305 307
324 326 326 323 322 324 325 326 323 323 322 321 319 318 319 321 319 311 308 305 299 310 303 302 300 303 303 305 302 298 309 311 312 314 311 307 307 304 302 303 302 302 301
325 326 326 324 321 324 324 324 322 324 320 320 319 319 320 318 319 310 309 312 317 315 319 315 315 314 313 313 314 315 316 314 314 310 307 303 302 304 302 302 302 301 299
325 325 324 324 322 323 322 323 297 304 301 300 302 313 321 311 301 300 301 301 302 301 313 318 317 318 317 318 318 317 313 310 308 306 304 302 301 301 301 301 302 301 299
326 326 323 321 323 320 321 321 317 307 297 296 302 301 307 304 299 298 299 298 296 298 314 317 320 321 322 321 316 310 306 305 305 302 302 302 301 301 300 301 300 300 298
328 311 325 322 324 322 321 320 321 317 315 314 301 305 296 294 296 295 294 300 307 306 316 317 320 323 322 315 310 306 304 302 303 302 302 302 303 303 300 299 299 297 297
327 325 325 324 323 321 321 320 319 319 317 318 312 304 295 293 293 293 296 315 314 314 314 318 318 316 313 309 305 304 304 304 303 303 304 303 301 300 299 299 298 291 293
329 315 317 325 323 323 322 321 318 317 318 317 317 314 309 305 310 311 311 316 317 319 321 320 315 310 308 306 305 305 302 302 303 304 301 301 301 300 299 298 297 296 295
330 327 312 324 325 322 323 321 321 319 318 317 317 315 302 312 312 313 312 314 316 322 320 313 313 308 308 307 306 304 304 302 300 300 301 301 301 300 300 299 298 297 295
329 329 325 324 324 323 321 322 322 321 320 319 317 308 295 313 314 314 315 315 322 321 317 313 310 309 308 306 305 302 300 299 300 301 301 301 300 298 298 298 296 295 294
328 329 328 325 326 315 321 321 321 322 321 320 318 308 308 312 315 317 320 321 316 313 312 311 308 305 306 304 301 300 298 300 301 301 301 300 299 297 297 295 296 294 294
329 328 328 327 325 325 324 324 321 310 323 321 317 312 311 318 322 319 312 312 312 311 309 306 304 301 300 299 300 300 298 297 301 301 300 298 298 294 298 296 294 294 293
327 329 329 329 325 323 323 323 325 321 322 321 319 316 319 318 314 312 310 309 309 303 301 301 300 300 299 300 298 294 288 287 293 290 299 300 298 298 296 294 293 293 292
325 328 328 327 327 325 323 325 324 323 323 323 322 321 314 311 311 310 307 302 300 300 299 299 299 299 297 296 293 287 286 286 287 286 294 299 297 293 292 291 292 290 290
Wind_Speed
4 5 2 5 4 3 6 5 7 5 7 6 6 8 8 8 7 8 10 11 12 11 9 10 11 10 8 7 6 5 6 3 5 2 3 4 6 6 6 6 6 6 5
6 6 3 4 5 3 6 5 7 7 6 6 6 6 8 8 8 9 9 8 11 12 11 11 10 8 9 7 5 4 5 4 3 9 5 6 6 5 8 5 6 7 7
7 8 4 5 5 4 5 6 5 7 5 4 5 6 6 7 9 7 9 9 8 10 10 12 10 12 9 6 5 4 3 4 4 8 5 3 3 3 4 4 5 5 7
7 8 6 4 6 3 5 3 7 5 8 7 8 5 7 8 7 8 7 10 10 8 8 9 11 11 10 6 4 5 3 6 8 7 6 5 3 4 4 4 3 1 2
8 9 6 5 5 5 5 4 5 7 6 5 7 7 9 6 7 9 8 10 9 10 10 8 9 8 7 6 4 5 5 5 7 6 5 4 4 4 5 4 4 4 5
7 11 8 7 6 5 4 5 4 5 6 6 7 9 9 7 8 12 10 12 9 7 10 8 8 8 7 5 6 6 5 7 5 5 4 5 4 5 4 5 4 4 4
8 10 10 8 8 6 6 5 4 5 5 7 9 8 7 6 10 11 12 8 10 10 10 10 11 9 10 6 7 8 8 10 8 3 4 5 6 7 6 6 6 2 3
10 11 11 10 9 8 7 6 5 4 4 6 7 7 7 4 8 10 8 7 6 7 7 6 8 7 6 7 6 4 4 4 3 3 4 5 5 5 4 0 3 3 4
12 11 12 11 10 8 7 8 6 4 4 4 7 7 6 4 4 7 3 6 6 5 7 7 6 8 6 5 5 7 6 3 5 10 9 6 5 7 5 4 3 2 4
12 11 12 12 10 9 7 8 6 5 5 5 6 8 10 6 3 2 3 2 5 5 6 6 7 7 8 7 2 6 6 4 5 4 3 3 3 3 4 4 2 2 3
12 12 12 10 11 9 7 7 6 6 6 5 6 6 8 8 6 5 4 1 5 5 4 4 4 10 10 8 6 6 4 2 3 2 1 2 4 6 4 3 4 4 2
13 13 12 11 10 9 9 8 7 6 5 5 6 5 5 8 9 5 5 4 6 3 6 5 7 11 10 9 7 7 9 5 2 2 2 3 2 6 2 5 3 2 4
12 11 12 13 9 11 10 9 7 6 5 6 5 5 6 7 5 11 9 5 4 3 3 9 15 11 9 6 9 7 4 2 1 0 1 4 8 8 8 6 5 4 4
11 10 12 12 10 12 9 8 8 8 7 8 7 7 6 7 7 6 4 4 4 6 8 8 9 8 6 5 5 4 4 4 1 3 7 5 5 6 7 4 4 5 3
11 10 12 11 11 10 10 10 10 9 10 8 7 8 7 9 9 11 10 7 5 5 6 5 4 4 5 4 4 6 4 4 6 5 6 5 6 6 4 3 2 1 1
11 10 11 11 10 10 9 8 7 3 12 8 5 5 7 10 20 18 16 14 13 12 2 4 5 5 6 7 5 6 7 8 6 6 6 6 5 3 2 2 3 2 3
12 12 11 11 12 10 10 10 10 6 9 5 8 3 5 11 22 21 18 13 10 10 5 4 4 6 5 10 8 8 7 5 6 7 5 4 2 0 2 2 6 5 4
14 15 11 12 11 12 11 11 9 10 8 5 2 2 5 10 16 18 16 13 5 1 5 4 5 5 8 9 10 9 8 6 6 5 4 3 1 3 4 4 3 3 4
15 13 12 12 11 13 11 12 11 11 11 9 6 3 8 10 11 7 12 8 8 7 6 4 8 8 8 9 9 7 7 6 4 3 4 3 5 3 3 2 3 6 5
15 17 15 11 12 10 12 12 12 11 12 12 11 10 8 6 6 6 5 5 5 6 6 9 8 9 8 9 8 7 6 5 4 4 3 3 4 3 2 5 4 1 1
11 12 14 12 10 13 10 13 12 12 11 13 12 13 18 13 10 10 9 7 6 6 9 10 10 10 8 8 8 7 5 4 5 4 4 4 3 4 3 2 2 4 4
10 12 14 14 13 11 14 10 12 12 13 11 13 11 20 12 11 10 10 8 7 8 8 9 10 10 9 9 7 7 6 4 4 2 5 3 4 3 2 3 2 1 2
10 10 12 13 12 11 8 12 10 10 12 10 9 11 13 11 11 11 9 10 11 10 10 9 10 10 9 7 8 7 6 5 3 3 4 3 5 3 1 2 2 3 3
9 10 10 11 11 11 10 9 10 8 6 9 9 11 11 9 11 13 12 12 13 12 11 10 9 12 11 9 8 7 5 4 3 4 5 2 4 4 2 3 3 3 2
7 7 6 6 10 10 9 6 5 9 9 9 10 10 10 11 13 12 12 12 11 10 12 12 10 13 13 10 9 12 9 9 6 4 3 4 3 2 5 4 4 2 4
8 7 7 6 7 8 8 6 5 6 6 10 11 10 13 14 14 14 13 13 12 11 13 10 11 16 16 13 12 10 8 6 5 4 3 4 4 6 5 4 5 4 4
Wind_Direction
150 103 135 121 109 124 97 102 115 100 87 82 82 80 93 101 97 104 109 117 109 111 109 112 105 118 114 109 98 97 98 78 113 95 99 159 176 182 164 190 169 166 175
155 134 136 111 98 81 97 98 123 118 107 103 90 103 99 104 123 122 128 123 125 127 124 122 120 121 120 127 122 141 158 155 133 149 153 150 164 162 164 159 169 185 180
171 130 143 127 104 89 81 123 115 125 119 119 116 131 125 125 122 126 132 126 124 133 133 130 135 135 139 156 184 182 185 213 160 134 129 116 117 146 166 198 193 219 206
166 140 146 144 125 153 127 132 121 127 135 157 171 155 145 151 130 132 123 132 125 130 129 136 146 146 163 181 192 210 231 123 119 136 144 164 154 181 162 194 236 229 237
168 142 149 156 153 172 158 134 128 143 118 81 58 58 131 109 129 127 125 119 138 141 140 141 150 172 177 218 211 219 167 120 146 149 155 152 163 160 186 194 194 213 244
175 144 158 172 170 151 122 114 112 100 104 116 81 73 64 74 90 148 157 150 152 128 138 135 152 161 130 198 207 98 89 156 165 145 146 154 189 164 194 209 208 214 245
177 153 165 177 167 151 153 153 122 110 115 95 95 85 77 67 44 65 112 118 123 135 138 145 157 163 169 159 90 95 76 76 72 96 146 177 169 187 181 199 223 232 250
185 166 165 178 170 166 165 151 122 110 102 106 108 110 101 83 47 46 99 102 115 127 145 158 115 152 121 132 136 122 106 85 43 53 50 60 56 38 15 231 191 254 282
186 173 168 180 164 171 170 143 139 146 130 138 133 123 111 117 68 58 74 124 117 130 93 101 147 126 130 97 178 155 144 95 57 68 82 101 91 77 70 22 331 317 289
187 184 169 172 168 168 159 148 151 168 162 182 145 147 146 143 184 147 32 119 131 127 116 94 43 122 105 55 19 133 119 154 157 171 191 174 161 136 143 162 187 301 329
189 185 166 162 158 164 155 156 163 179 174 207 153 143 145 151 184 195 101 321 147 140 134 143 116 124 118 92 58 68 111 249 83 100 216 219 170 192 201 168 177 179 197
193 184 166 149 164 161 156 161 169 190 169 195 144 149 141 149 160 166 133 71 11 185 160 158 139 141 140 137 98 116 68 43 26 347 353 347 355 82 115 129 123 19 20
196 179 157 151 164 153 161 165 174 193 193 187 174 180 166 151 158 150 168 133 21 73 52 128 130 137 133 114 131 132 145 183 185 115 18 51 61 57 47 46 48 41 30
192 172 155 156 162 159 165 175 187 186 207 186 194 195 176 161 159 154 169 168 159 119 117 125 152 158 157 121 127 175 195 191 166 85 78 78 60 58 57 27 43 21 352
184 171 162 164 167 165 178 182 196 186 201 188 198 194 176 176 174 169 168 179 173 188 139 127 150 164 174 187 203 165 175 131 79 86 90 84 69 63 39 14 44 324 226
185 177 172 168 175 174 182 186 57 285 172 120 93 204 186 175 156 165 171 175 181 174 167 174 183 191 194 187 153 91 71 93 89 85 73 66 65 61 34 303 233 220 38
188 181 177 180 173 186 184 199 186 58 55 53 125 69 165 165 165 167 171 170 169 142 196 228 215 202 206 115 115 100 94 79 80 81 94 96 89 329 242 6 49 31 20
183 179 187 189 178 188 187 196 190 191 183 180 342 58 102 129 156 145 138 119 132 168 207 234 228 125 98 106 111 113 109 101 95 102 106 130 253 285 51 42 47 33 24
182 186 189 184 204 181 195 189 209 190 191 191 126 97 88 80 86 105 161 165 174 189 207 244 101 104 102 104 105 108 112 115 125 167 175 133 92 69 62 36 34 68 49
186 188 185 198 191 203 193 194 195 210 187 192 179 171 152 140 159 170 202 206 206 211 179 127 112 107 113 116 123 120 121 139 180 153 58 61 94 95 78 55 47 355 3
188 182 186 192 209 200 205 201 198 198 209 191 197 173 167 177 184 186 186 198 209 144 129 124 127 123 123 120 129 136 154 123 104 120 117 154 108 85 109 146 34 25 52
203 186 188 201 200 223 202 207 201 205 203 209 189 157 167 188 188 185 184 186 171 135 126 129 125 131 137 136 144 123 109 98 118 150 140 134 112 83 40 84 357 336 342
201 204 185 198 206 204 235 204 217 206 207 198 142 149 165 184 179 181 170 136 127 118 123 131 124 129 132 102 93 103 120 150 178 132 115 133 119 110 290 153 53 36 21
200 210 208 180 198 207 213 230 208 209 112 127 142 158 172 183 157 132 127 129 123 127 128 135 120 117 116 118 112 103 85 36 104 68 49 105 132 173 280 85 39 6 302
223 207 208 194 182 198 203 196 163 150 143 143 142 152 169 126 125 119 122 123 126 113 111 115 119 118 113 109 89 94 87 70 61 27 6 277 97 17 69 53 6 353 12
231 241 190 191 159 176 195 179 164 170 184 153 146 149 131 133 131 134 125 116 120 121 118 121 129 119 104 101 105 90 81 78 71 45 341 339 53 71 48 357 18 35 7